RH
8 6 5 4 4 3 3 4 6 8 12 21 40 45 46 48 46 42 39 38 38 41 42 42 43 46 53
6 5 4 4 4 4 6 10 12 17 40 43 52 51 52 48 44 41 40 37 34 37 44 49 48 48 50
4 4 4 4 5 9 12 14 30 46 51 53 56 55 53 50 48 50 43 37 42 50 52 56 57 56 57
4 4 5 8 12 16 23 46 44 52 52 53 58 54 54 54 58 55 51 51 52 52 60 61 64 67 68
4 5 10 13 34 51 52 51 50 55 53 51 49 53 48 60 65 63 59 60 57 59 67 65 67 68 72
7 12 16 50 61 62 65 59 48 56 56 48 62 54 55 64 63 69 62 60 60 65 72 73 76 74 75
14 26 54 63 64 68 72 66 59 61 69 51 64 53 56 56 64 74 72 73 73 75 77 79 77 78 77
34 61 65 69 74 75 69 68 62 66 74 58 64 50 50 48 58 67 79 86 83 82 83 84 81 76 69
67 69 76 79 79 77 76 67 58 60 73 79 63 50 46 40 57 66 72 80 86 87 83 82 80 73 64
67 73 74 78 83 84 80 74 76 64 89 84 72 77 46 42 51 65 66 78 78 77 79 78 75 70 67
70 74 78 80 80 87 92 93 87 82 98 98 82 82 88 54 50 64 66 69 73 71 74 74 71 77 86
77 80 78 79 82 88 89 94 95 94 90 100 88 90 86 75 62 60 70 77 74 68 67 64 71 95 98
79 82 83 83 84 87 87 90 87 95 98 100 99 94 90 85 80 69 75 69 71 68 65 73 88 92 88
85 87 87 88 88 91 85 85 80 81 93 98 97 100 91 93 93 90 93 73 65 70 77 81 90 97 98
91 88 88 89 88 91 91 85 85 86 81 90 96 95 96 100 94 90 84 70 72 73 84 81 90 98 94
94 95 94 93 89 88 89 92 88 88 88 93 90 82 75 81 97 93 86 70 70 79 86 91 85 99 90
95 98 97 92 94 92 91 91 89 93 93 98 94 99 86 70 85 99 87 79 86 83 86 84 86 89 84
Wind_Speed
54 56 57 58 58 57 54 50 48 45 42 39 37 37 37 36 37 38 37 37 37 38 38 38 38 40 40
56 57 58 56 56 53 49 46 44 38 35 33 30 35 35 38 40 40 40 39 38 38 38 37 37 38 41
58 56 54 51 50 47 46 42 37 33 31 32 31 36 37 40 42 40 39 38 37 37 36 32 31 30 33
54 52 49 45 44 44 42 37 35 27 30 35 35 39 36 37 37 36 36 37 37 35 29 26 26 25 26
50 48 44 41 40 39 39 36 32 30 35 40 37 36 33 32 32 31 32 36 37 31 26 25 24 24 24
47 43 40 37 36 37 37 39 40 33 38 40 38 34 31 29 28 27 30 35 34 28 26 25 26 26 26
41 38 37 33 35 38 38 40 40 36 40 44 35 33 29 28 27 26 29 33 32 29 28 29 28 28 30
34 33 32 33 36 39 41 42 39 35 34 42 36 35 27 27 25 23 23 30 32 31 32 32 33 33 36
28 29 32 33 34 38 37 40 40 38 33 42 38 38 32 26 23 20 21 24 32 33 34 35 35 37 41
24 26 29 30 30 32 35 40 42 42 35 42 41 42 39 28 25 23 23 22 28 32 33 34 35 39 42
28 28 26 26 27 29 32 37 39 40 32 39 40 39 41 39 32 27 25 21 25 28 31 31 33 36 41
29 26 27 26 27 30 32 33 34 36 34 33 37 37 40 42 39 31 27 24 25 25 27 28 29 32 37
28 26 28 29 31 33 31 32 31 29 30 30 33 35 38 41 42 35 35 29 26 24 25 25 29 32 33
28 28 30 31 32 34 34 34 33 28 25 28 31 35 36 36 38 36 32 36 29 23 26 26 25 26 30
28 31 32 34 32 31 32 33 34 34 30 26 27 31 32 34 33 28 31 29 25 26 29 30 23 25 27
29 31 33 34 33 30 31 33 33 33 33 32 32 32 28 26 30 31 29 29 27 27 30 34 28 20 23
29 31 32 32 31 31 31 31 31 32 30 31 32 33 34 31 21 25 30 28 31 30 30 30 29 23 24
Wind_Direction
309 309 308 306 304 303 303 303 301 300 297 293 294 291 290 291 289 289 288 285 282 280 278 276 277 277 275
310 309 307 306 306 306 305 303 303 303 301 297 298 292 296 294 293 293 291 288 284 282 281 282 279 272 269
309 308 307 308 306 304 302 306 307 310 304 299 299 298 297 295 292 292 288 285 283 282 286 282 278 277 276
307 307 308 308 305 306 309 310 309 311 303 299 302 299 301 294 290 287 285 282 282 286 280 274 279 283 286
308 308 309 310 312 310 310 312 313 313 304 299 303 301 299 294 292 285 280 279 283 284 271 268 269 274 280
309 311 313 313 310 311 313 314 316 311 305 303 306 305 298 295 291 289 280 281 285 278 271 268 269 275 284
310 312 312 315 311 311 310 312 315 319 311 308 311 302 297 295 296 293 283 284 282 277 272 271 276 284 287
311 311 310 311 311 311 314 314 316 317 315 307 310 306 302 297 299 292 286 281 277 275 275 275 280 283 284
309 308 308 309 310 310 314 311 314 316 324 311 313 309 308 305 304 296 288 271 268 270 273 276 280 282 283
306 305 307 310 311 311 314 313 316 318 330 312 313 314 312 312 310 313 301 282 271 267 268 272 278 282 285
314 316 314 313 314 314 313 313 315 318 325 311 312 311 307 311 314 317 311 291 275 266 266 271 280 286 290
319 320 318 318 319 319 320 317 318 319 318 310 310 311 310 312 314 316 314 303 293 282 276 276 282 287 283
321 320 320 323 324 321 322 318 320 321 315 312 309 307 309 312 313 317 315 310 310 298 289 291 294 289 280
321 322 323 324 326 323 322 323 323 322 319 315 311 309 311 311 311 316 315 310 311 304 298 295 296 289 286
321 324 327 326 326 324 324 324 325 325 325 320 314 311 312 313 313 315 310 308 311 309 308 305 304 296 289
325 326 326 325 326 328 327 326 325 326 328 327 323 318 318 318 330 332 322 318 315 311 310 304 301 305 293
326 325 324 325 328 327 326 326 327 328 330 329 329 327 325 328 343 338 321 315 311 309 313 310 307 310 299